This is the latest recevied weather packets stored in our database for station/object KG5CK-1. If no packets are shown the sender has not sent any weather packets the latest 1 day(s).
| Time | Temp. | Humidity | Pressure | Rain* | Wind** | Luminosity | Snow |
|---|---|---|---|---|---|---|---|
| 1778035923 | 21.11° C | 79% | 1003.7 hPa | 0 mm | 0.45 m/s, 48° | - | - |
| 1778035803 | 21.11° C | 78% | 1003.5 hPa | 0 mm | 0.89 m/s, 67° | - | - |
| 1778035683 | 21.11° C | 78% | 1003.5 hPa | 0 mm | 0.89 m/s, 67° | - | - |
| 1778035383 | 21.11° C | 78% | 1003.4 hPa | 0 mm | 1.34 m/s, 32° | - | - |
| 1778035263 | 21.11° C | 78% | 1003.4 hPa | 0 mm | 1.34 m/s, 32° | - | - |
| 1778035083 | 21.11° C | 78% | 1003.1 hPa | 0 mm | 1.34 m/s, 355° | - | - |
| 1778035023 | 21.11° C | 78% | 1003.1 hPa | 0 mm | 1.34 m/s, 355° | - | - |
| 1778034963 | 21.11° C | 78% | 1003.1 hPa | 0 mm | 1.34 m/s, 355° | - | - |
| 1778034843 | 21.67° C | 78% | 1003.1 hPa | 0 mm | 1.34 m/s, 32° | - | - |
| 1778034783 | 21.67° C | 78% | 1003.1 hPa | 0 mm | 1.34 m/s, 32° | - | - |
| 1778034663 | 21.67° C | 78% | 1003.1 hPa | 0 mm | 1.34 m/s, 32° | - | - |
| 1778034543 | 21.67° C | 78% | 1003 hPa | 0 mm | 0.89 m/s, 19° | - | - |
| 1778034482 | 21.67° C | 78% | 1003 hPa | 0 mm | 0.89 m/s, 19° | - | - |
| 1778034363 | 21.67° C | 78% | 1003 hPa | 0 mm | 0.89 m/s, 19° | - | - |
| 1778034303 | 22.22° C | 77% | 1002.9 hPa | 0 mm | 2.68 m/s, 4° | - | - |
| 1778034243 | 22.22° C | 77% | 1002.9 hPa | 0 mm | 2.68 m/s, 4° | - | - |
| 1778034182 | 22.22° C | 77% | 1002.9 hPa | 0 mm | 2.68 m/s, 4° | - | - |
| 1778034063 | 22.22° C | 77% | 1002.9 hPa | 0 mm | 2.68 m/s, 4° | - | - |
| 1778033943 | 22.78° C | 75% | 1002.8 hPa | 0 mm | 2.24 m/s, 347° | - | - |
| 1778033883 | 22.78° C | 75% | 1002.8 hPa | 0 mm | 2.24 m/s, 347° | - | - |
| 1778033823 | 22.78° C | 75% | 1002.8 hPa | 0 mm | 2.24 m/s, 347° | - | - |
| 1778033763 | 22.78° C | 75% | 1002.8 hPa | 0 mm | 2.24 m/s, 347° | - | - |
| 1778033703 | 22.78° C | 75% | 1002.4 hPa | 0 mm | 0.45 m/s, 43° | - | - |
| 1778033643 | 22.78° C | 75% | 1002.4 hPa | 0 mm | 0.45 m/s, 43° | - | - |
| 1778033583 | 22.78° C | 75% | 1002.4 hPa | 0 mm | 0.45 m/s, 43° | - | - |
* Rain latest hour (hover to see other rain measurements)
** Current wind speed in m/s (hover to see current wind gust speed)